Wind_Gust
13 13 13 12 7 4 7 16 13 15 9 9 12 7 15 5 8 13 15 18 15 11 7 12 15 20 21 19 20 8 10 35 18 29 22 12 14 22 21 26 25 25 24 20 19 21 22 22 23 25 25 25 23 21 21 21 21 21 23 23 22 22 22 21 21 20 20 19 19 17 17 17 16 16 15 15 14 13 13 14 14 14 15 15 16 17 16 15 14 13 13 12 12 12 13 13 13
11 12 9 10 10 7 9 4 10 7 10 11 17 5 11 9 8 9 14 16 11 15 19 11 7 11 18 16 14 19 8 7 3 6 9 9 17 18 22 27 28 28 22 22 20 19 18 21 22 25 25 26 23 21 21 22 22 23 23 22 22 22 21 21 21 20 20 19 19 18 17 17 16 15 15 14 12 13 11 12 14 14 14 15 15 16 15 14 13 13 12 11 11 11 12 12 12
9 12 13 15 9 10 7 11 12 3 4 9 20 12 6 16 7 11 13 16 15 9 9 10 11 12 10 10 13 12 12 5 14 8 13 16 26 14 22 25 26 28 26 21 20 19 18 19 23 24 25 25 22 21 22 22 22 23 23 22 22 22 22 22 21 21 21 19 19 18 17 17 16 16 15 13 12 11 11 12 13 13 14 14 14 14 14 13 13 12 11 10 11 11 11 11 11
6 2 6 8 12 11 5 9 7 7 6 12 20 11 6 6 9 13 14 21 20 13 11 13 10 8 9 6 9 7 8 7 6 21 26 29 21 27 23 23 22 24 22 21 19 18 16 22 24 23 25 24 22 22 22 23 22 23 22 22 22 22 22 21 21 21 20 20 19 18 17 16 16 16 15 12 10 10 11 11 12 13 13 12 13 13 13 13 12 11 10 11 12 13 12 12 11
8 6 4 7 8 9 5 5 5 8 9 11 14 16 12 11 6 14 19 15 20 20 18 9 11 8 7 11 9 10 13 6 9 10 20 11 16 25 23 23 22 23 21 19 19 18 17 25 22 22 23 25 23 22 23 23 23 22 23 22 22 23 22 21 21 21 21 20 19 18 17 16 16 15 14 14 13 12 11 10 11 12 12 12 11 12 12 12 11 10 10 12 13 14 13 12 11
5 8 5 5 7 9 13 6 6 6 15 10 10 19 14 17 9 12 17 18 19 14 16 8 14 9 7 8 9 9 18 18 15 9 23 14 26 23 24 23 23 21 19 18 17 17 17 25 23 20 20 22 23 23 23 23 23 22 22 22 22 22 21 22 21 21 21 21 19 18 17 16 15 14 13 14 13 12 13 13 12 11 12 12 12 11 11 10 9 10 10 11 13 13 12 12 10
9 9 11 7 7 9 11 10 10 11 18 10 15 19 19 20 11 10 17 22 19 13 13 7 10 7 5 7 5 6 9 8 27 17 16 24 25 22 23 22 22 21 19 19 17 16 18 23 20 19 20 21 22 23 23 22 23 22 22 22 22 22 21 21 20 21 21 20 19 17 16 15 15 14 13 13 13 13 13 12 12 11 10 10 11 11 11 10 9 10 10 11 11 11 10 10 10
2 5 7 5 10 7 6 8 11 12 16 13 12 15 20 22 13 11 12 10 22 22 23 8 7 9 9 4 11 6 14 12 11 20 22 27 25 22 20 22 22 20 19 17 16 15 22 22 21 19 20 20 22 23 23 23 21 21 22 21 21 21 21 21 21 19 19 20 18 16 16 15 15 14 13 13 12 12 12 11 12 11 8 10 10 11 10 9 9 9 10 9 9 10 9 9 9
6 7 5 8 8 12 6 9 14 8 12 7 14 15 18 18 15 15 15 15 14 12 17 21 6 14 10 7 9 7 7 14 18 24 26 26 25 23 22 20 24 22 18 17 15 16 17 21 19 19 20 20 21 22 22 22 21 21 22 21 20 20 20 20 21 19 18 17 16 16 16 15 14 13 12 12 12 11 10 10 9 10 10 9 8 9 8 8 8 8 9 9 9 9 9 9 9
5 5 9 16 9 11 8 10 7 13 19 11 18 18 20 22 18 11 15 15 20 12 23 12 9 15 10 11 7 6 9 19 25 20 20 22 22 19 18 18 21 25 19 17 16 16 17 23 21 19 18 20 21 20 20 20 20 20 21 20 18 18 19 19 18 18 18 17 15 15 15 15 14 13 12 11 12 11 10 10 10 10 9 9 8 7 7 7 7 8 8 9 9 10 10 10 10
12 9 7 11 7 12 15 12 13 11 10 11 13 16 15 19 19 24 20 20 16 16 16 8 9 15 13 6 7 6 13 23 27 25 19 18 15 17 18 15 17 21 23 18 16 16 18 19 23 20 19 19 18 18 18 18 18 17 17 17 17 17 18 18 19 18 17 17 16 16 15 14 14 12 11 11 11 10 10 9 9 9 8 8 8 7 6 6 7 7 7 7 8 8 9 10 10
10 11 9 13 16 18 15 17 11 17 10 8 16 13 6 14 15 20 21 23 18 16 15 14 19 21 8 13 10 10 12 16 24 22 19 15 18 16 17 17 16 14 18 19 17 16 17 18 18 21 21 18 17 18 17 17 17 17 17 17 17 17 18 17 18 17 17 17 16 15 14 14 13 12 11 10 9 9 9 9 9 8 8 7 6 6 5 5 5 5 6 6 7 8 9 9 10
13 7 8 13 17 10 11 13 14 12 12 13 18 19 10 13 18 21 22 22 19 15 22 18 21 9 15 8 9 9 11 10 19 22 18 19 19 18 16 18 17 18 17 17 18 17 16 15 17 16 17 21 17 17 16 17 17 17 17 17 18 18 19 18 17 17 16 15 15 14 13 12 12 11 11 10 9 8 9 7 7 7 6 6 6 4 4 3 4 4 5 6 7 8 9 10 10
16 17 18 22 6 14 16 12 7 13 17 12 12 11 12 14 12 20 20 17 23 17 14 23 23 19 14 14 9 10 11 13 15 15 19 17 18 19 18 18 18 18 16 17 17 18 17 16 15 15 17 16 14 18 18 20 19 18 17 17 18 17 19 17 16 15 15 15 14 13 13 12 12 11 10 10 9 8 7 7 6 6 6 6 5 5 4 4 3 4 5 6 6 7 9 10 11
16 8 13 13 13 10 12 24 16 14 26 10 14 11 14 19 17 19 18 16 28 15 8 7 25 24 22 21 15 19 18 18 17 20 21 19 17 18 18 18 17 17 16 16 16 18 18 16 15 14 12 14 14 13 13 19 20 20 19 18 19 19 17 17 17 16 16 15 14 13 13 12 11 11 10 9 9 8 8 7 6 6 6 6 6 6 6 4 3 4 5 5 6 7 8 10 10
15 10 14 18 20 18 17 19 9 13 28 10 13 15 16 19 21 16 20 16 18 11 18 16 10 16 22 27 30 27 23 21 21 23 24 22 18 17 18 17 16 15 15 16 16 14 16 15 15 14 14 14 13 12 12 13 19 19 19 20 20 19 19 17 16 15 15 15 14 13 12 10 10 8 11 8 10 9 8 7 8 6 6 7 6 6 5 5 5 5 4 5 6 7 8 9 10
7 11 15 19 22 17 14 17 16 29 10 17 7 9 18 22 18 12 12 5 12 7 9 9 15 10 33 20 26 28 25 24 23 25 24 21 21 18 16 15 14 12 13 13 14 16 15 16 16 16 17 16 14 13 12 12 17 21 18 20 21 20 18 17 16 16 14 13 12 12 10 6 4 4 6 4 10 6 8 8 8 7 6 6 6 6 6 6 5 5 5 6 6 7 8 8 9
9 22 25 23 20 20 16 23 24 11 18 13 9 13 15 18 20 13 6 5 7 6 4 7 10 11 18 21 32 31 30 30 28 28 23 22 19 20 18 15 16 17 15 14 11 14 16 14 16 18 18 18 17 14 12 12 14 16 13 14 15 17 16 14 14 10 12 7 12 11 6 6 6 4 5 9 4 6 6 9 8 7 6 5 5 5 5 5 6 6 6 7 7 8 7 5 8
21 17 21 35 21 26 16 17 11 13 13 9 13 15 13 21 12 11 16 9 8 5 5 4 15 17 20 29 30 32 30 28 27 27 28 26 23 23 21 18 16 17 16 15 15 14 15 16 13 16 16 16 15 13 13 12 12 12 13 12 13 12 14 13 8 11 6 8 7 7 7 5 5 5 6 8 6 9 6 8 8 7 6 6 5 5 5 6 6 7 8 9 8 8 6 7 7
19 14 28 32 12 10 13 9 13 14 10 13 12 15 9 12 12 7 15 21 9 11 12 4 16 20 26 26 28 29 28 27 26 28 27 24 21 24 22 20 18 18 18 18 19 14 14 15 15 14 14 14 14 13 13 13 12 12 13 12 11 10 9 9 8 8 8 8 8 7 7 6 6 6 10 13 11 5 5 7 7 7 6 6 6 4 7 7 7 8 9 10 7 6 5 6 7
15 19 31 23 13 12 10 13 14 12 9 12 14 9 10 10 9 7 5 10 13 9 14 19 17 24 27 29 30 28 28 26 25 24 23 21 19 19 21 20 23 21 20 17 15 18 17 15 14 15 14 14 12 13 13 14 13 12 12 12 10 8 7 9 8 8 9 8 7 8 8 6 7 7 7 6 5 5 4 5 5 5 5 6 6 5 5 6 5 6 6 7 7 6 6 6 4
10 30 19 6 6 15 15 12 14 12 13 11 10 9 21 7 10 9 7 13 20 13 13 10 26 26 30 28 26 26 25 25 25 25 24 25 26 22 18 17 15 17 16 18 19 17 17 15 14 15 14 13 12 13 12 15 15 13 12 12 10 7 8 9 8 7 8 8 7 8 8 8 8 9 8 7 4 6 5 4 5 6 6 5 5 6 5 4 5 5 5 7 6 4 6 7 5
30 22 12 12 9 11 10 19 15 13 20 19 16 14 9 9 15 9 10 15 16 12 13 20 27 31 33 33 30 25 24 25 23 25 24 23 21 20 21 20 22 21 19 18 19 18 18 14 13 14 14 14 13 10 11 11 12 10 10 11 11 9 8 10 9 8 8 8 8 9 10 9 8 8 9 7 6 6 6 6 6 5 5 6 5 6 7 5 5 6 6 7 6 5 6 6 6
20 31 8 12 10 19 9 8 16 20 18 24 21 5 10 4 9 5 6 10 16 15 14 22 26 24 27 31 31 33 28 25 23 18 17 19 22 23 23 22 18 16 18 19 19 19 18 16 15 14 13 14 13 11 13 11 10 11 11 13 11 11 10 9 9 9 8 9 9 9 9 9 9 7 7 8 7 6 7 6 5 6 6 6 4 5 7 8 7 6 6 7 7 7 8 7 7
27 28 12 12 9 11 12 19 17 14 16 14 7 12 21 10 13 8 13 13 13 9 12 17 22 25 24 27 25 23 22 19 19 18 13 15 15 15 12 14 17 18 19 20 19 19 18 20 17 16 14 13 12 13 13 11 11 10 10 10 11 11 10 10 11 8 9 9 8 10 9 9 7 7 7 8 6 7 5 6 5 7 6 6 3 6 7 8 7 6 6 7 7 7 7 8 7
25 15 12 12 17 12 10 14 21 23 24 12 10 17 20 12 6 11 14 19 7 8 13 22 23 24 26 26 28 27 25 22 19 19 18 14 15 17 12 16 18 19 22 21 19 17 17 19 20 19 16 17 15 14 12 12 13 13 12 12 11 11 11 11 8 9 9 8 9 9 9 8 9 10 9 7 9 7 6 6 6 5 6 6 6 7 7 7 8 5 6 5 6 6 5 7 5
4 14 18 18 18 16 13 16 19 21 24 14 17 18 22 14 15 21 9 13 5 14 17 18 22 24 22 22 22 22 26 25 23 18 16 14 15 18 16 13 14 16 15 15 16 15 15 16 19 20 16 15 14 14 13 13 12 12 13 12 10 12 11 9 9 9 8 9 10 9 9 9 10 9 10 9 7 8 6 6 6 5 5 5 5 6 5 6 7 7 7 7 7 7 7 7 7
16 9 10 20 19 19 17 15 17 16 23 22 12 17 15 16 12 20 16 9 12 20 18 18 20 22 21 20 21 17 17 18 21 23 25 24 26 21 16 17 13 13 16 14 13 15 17 16 17 18 17 17 17 14 14 13 12 12 11 10 11 11 7 9 10 8 7 9 8 8 9 9 8 8 10 9 8 7 7 6 5 5 5 5 5 5 5 5 5 6 5 5 5 6 6 6 6
13 12 21 14 15 34 23 26 17 10 21 10 13 13 22 20 14 11 17 8 11 21 19 20 19 19 19 20 20 19 21 18 20 21 22 20 17 15 19 17 22 21 17 18 16 18 17 15 17 18 18 17 17 16 15 13 13 12 10 10 10 9 9 9 8 8 8 9 8 7 8 8 8 11 9 10 8 9 8 7 6 5 5 5 5 5 5 6 3 5 5 3 5 5 6 6 6
8 12 12 12 18 22 20 19 17 14 19 9 14 24 23 21 12 12 14 11 13 14 18 17 16 16 19 21 24 18 15 17 18 20 18 19 20 20 23 16 20 23 22 18 21 19 15 13 14 16 18 19 19 17 15 14 13 10 10 10 9 9 9 9 9 8 10 10 9 7 8 7 8 7 9 6 7 8 8 8 7 6 6 5 4 5 5 5 5 3 3 4 6 6 6 6 7
14 8 10 20 10 26 8 20 15 22 19 10 14 25 19 14 10 12 11 12 21 18 18 17 17 19 20 19 20 23 20 22 22 19 17 16 17 20 22 17 19 20 21 18 24 22 19 22 19 20 19 18 17 16 16 13 9 10 10 9 9 9 8 9 9 10 11 8 6 5 5 6 6 8 6 8 7 8 10 7 5 6 5 4 6 5 5 5 3 4 3 6 5 5 4 6 5
9 13 26 9 20 7 9 13 16 28 20 13 12 25 21 13 14 11 10 9 16 20 17 17 20 21 21 18 19 19 19 14 13 14 15 16 15 16 17 17 17 19 20 21 22 24 23 21 24 22 13 13 16 15 12 13 11 10 9 8 7 7 8 8 9 10 8 6 8 7 6 6 6 7 7 6 8 4 6 6 6 6 5 5 6 6 6 6 3 6 4 2 4 6 5 7 5
12 16 5 17 8 11 11 11 12 20 24 8 25 17 6 14 11 12 6 9 15 17 15 18 20 22 22 19 18 18 18 14 14 15 15 17 14 14 16 17 18 17 17 18 21 22 23 24 26 20 16 16 13 12 12 8 12 10 7 7 8 8 10 9 7 6 7 8 7 7 6 6 7 7 6 5 7 5 5 5 5 6 5 4 6 5 5 6 4 5 4 3 5 5 4 5 8
16 8 16 8 11 8 21 6 10 15 22 21 12 24 10 6 7 11 5 12 18 15 19 19 22 22 22 21 20 22 22 22 24 23 21 17 17 16 16 16 18 19 16 18 19 23 24 24 26 19 13 15 16 16 13 11 10 10 9 7 7 9 7 8 8 8 8 7 7 8 7 7 7 7 5 5 7 6 4 7 6 8 7 5 5 5 6 4 5 4 3 2 5 2 3 5 8
14 8 10 12 7 13 13 21 9 12 19 26 15 12 8 10 7 5 8 12 20 19 25 22 23 22 22 21 22 23 24 26 28 24 22 20 21 21 21 19 18 18 18 20 20 21 24 20 22 23 17 12 11 13 12 13 12 10 9 9 8 8 6 7 7 8 7 7 7 8 8 8 7 6 6 7 7 6 5 5 7 6 6 7 5 5 5 4 4 4 3 3 2 3 4 5 7
12 8 11 7 12 11 17 15 8 15 12 22 21 18 11 11 11 8 4 15 16 16 16 19 21 24 23 24 24 25 26 29 22 19 20 14 14 15 19 17 15 18 20 20 21 20 18 17 17 17 14 13 12 14 16 14 13 14 13 7 8 6 5 7 6 7 5 7 7 7 8 8 7 6 6 7 8 6 4 5 5 4 6 4 5 5 4 4 2 2 2 1 4 5 3 5 5
7 9 8 13 11 9 7 7 9 7 10 13 16 10 12 13 14 13 12 9 13 19 18 23 19 21 23 24 27 29 28 28 17 20 18 15 17 16 15 16 17 17 19 21 20 18 21 24 22 19 14 13 15 16 16 17 16 13 9 11 9 5 7 5 7 5 5 4 5 6 7 7 6 6 6 7 6 4 3 4 4 5 6 6 4 3 5 3 2 2 2 2 3 4 4 5 7
14 7 7 12 11 15 9 9 7 10 15 5 7 10 13 15 16 16 7 17 16 20 21 25 21 21 23 27 28 26 18 10 17 16 14 12 14 14 14 16 17 21 19 24 24 20 19 18 21 19 13 13 15 15 16 16 15 17 15 12 9 6 7 8 7 5 5 6 7 7 7 6 6 6 5 7 5 3 3 3 6 6 4 5 5 4 3 4 4 5 4 5 4 4 5 4 9
15 16 9 7 13 8 12 11 7 6 8 14 5 10 14 18 17 14 15 17 21 26 30 29 28 22 20 22 23 18 14 17 17 15 14 15 16 15 14 15 16 18 20 20 17 19 19 19 15 15 14 15 14 15 15 14 7 9 11 12 12 9 5 5 6 6 6 8 7 7 7 6 6 5 6 6 6 6 5 4 4 4 6 6 6 7 8 9 7 6 4 4 5 5 4 4 8
13 13 13 16 7 13 17 11 8 12 15 7 8 10 12 15 7 17 8 9 14 19 26 28 28 30 26 27 28 27 21 24 25 23 21 20 18 18 14 13 14 13 16 17 21 22 19 18 18 17 16 13 12 13 13 10 12 12 13 13 10 8 7 7 7 7 7 8 8 7 6 6 5 6 4 5 5 4 4 3 4 5 6 4 7 10 11 11 11 10 8 6 4 6 8 5 5
16 13 11 10 10 7 9 12 13 16 9 4 6 9 13 10 11 10 4 9 15 11 6 6 11 18 25 20 17 24 30 27 27 21 18 20 20 19 18 14 14 14 16 18 19 20 18 18 18 22 20 15 12 14 15 15 16 15 17 15 12 12 10 7 6 7 6 6 7 6 5 5 4 5 5 4 5 4 4 3 5 9 11 12 12 13 13 12 11 9 9 9 8 4 6 6 7
20 15 12 8 5 11 15 7 5 8 14 12 11 14 20 11 14 16 8 11 12 8 17 19 20 16 14 19 25 20 18 26 34 32 27 22 19 17 15 15 16 17 20 19 22 24 20 17 16 14 15 13 13 12 15 16 15 19 16 15 12 9 11 10 11 12 9 8 7 5 6 5 5 6 7 9 10 10 10 9 8 11 13 14 12 11 11 12 13 12 10 7 10 9 7 11 12
17 20 14 11 11 10 13 6 4 7 14 13 15 22 24 11 14 10 11 14 15 8 15 20 17 15 16 20 20 22 23 18 11 13 17 20 19 19 17 17 19 22 19 21 22 21 21 22 20 16 13 13 13 13 13 14 14 14 15 14 13 14 14 8 4 5 7 7 7 7 5 6 6 9 10 11 11 10 8 11 14 13 13 13 12 13 14 11 10 9 10 12 10 9 10 12 11
29 8 16 15 15 15 16 5 5 10 7 14 9 27 26 24 18 6 8 16 14 12 14 15 16 14 17 19 20 20 20 19 20 21 19 19 18 20 21 20 21 23 21 20 20 19 21 20 15 13 10 11 11 13 12 13 16 13 12 11 12 12 12 10 8 7 7 8 9 7 6 8 9 10 12 10 9 9 12 13 13 13 14 12 13 13 12 9 10 11 11 10 13 14 12 12 9
15 10 14 15 15 17 11 6 7 7 2 19 14 7 24 24 13 7 14 14 9 16 21 21 20 19 18 19 21 16 12 13 15 20 21 20 22 23 22 24 22 22 23 23 19 18 17 14 13 11 12 13 12 12 14 11 14 15 14 14 11 7 9 9 9 9 9 7 9 8 9 10 11 11 10 10 10 11 13 12 12 13 13 11 11 11 10 11 12 12 14 15 14 14 12 8 12
10 12 7 10 7 8 8 11 9 9 11 20 20 12 26 17 9 16 7 9 19 21 22 24 26 27 24 24 18 15 14 15 17 19 20 21 23 25 27 26 24 24 22 18 17 16 16 14 12 11 13 13 15 15 15 13 13 14 14 13 14 12 10 10 9 11 11 9 10 9 9 10 9 10 9 9 11 12 12 12 12 12 10 9 11 10 10 12 11 12 12 11 11 13 10 11 11
5 12 13 15 8 8 5 9 11 8 18 22 16 15 18 23 16 24 26 23 25 20 13 17 15 10 14 15 15 16 17 19 21 22 20 21 23 27 29 32 29 23 21 24 24 22 21 20 19 17 16 16 16 15 14 14 13 12 14 13 14 14 12 14 14 12 10 9 12 10 10 9 8 9 9 10 10 10 11 10 10 9 9 9 10 10 10 10 10 11 11 11 12 12 11 10 11
9 20 22 10 13 3 6 10 5 21 24 14 14 16 17 30 15 14 22 19 27 28 26 28 25 27 27 19 18 18 19 21 24 23 22 26 25 26 24 24 25 21 19 22 24 24 26 25 22 20 18 18 16 16 15 15 14 13 12 14 14 14 16 16 16 16 14 14 12 13 9 10 9 8 8 10 11 10 9 9 8 8 10 9 10 8 9 10 10 10 11 12 11 10 9 11 10
16 9 14 20 18 19 23 15 25 23 23 13 12 11 11 33 20 27 28 26 19 27 33 35 34 32 22 18 21 21 21 22 25 22 22 23 25 25 22 21 20 22 23 22 21 20 19 20 26 29 26 20 18 17 16 15 14 13 14 14 12 14 14 13 14 15 12 15 14 13 11 11 8 10 9 11 8 7 9 10 9 10 9 8 8 10 10 10 10 11 11 10 11 12 11 11 12
22 20 22 25 25 24 23 13 14 10 13 11 11 8 23 10 16 21 32 28 28 30 27 30 34 31 26 24 23 23 23 22 23 23 21 25 24 23 23 21 22 22 21 22 20 20 20 19 16 15 19 19 17 16 16 15 13 13 14 14 14 13 14 13 11 14 11 13 12 12 11 11 11 10 9 9 6 8 9 8 8 8 7 8 10 12 12 11 10 11 10 13 11 9 9 10 10
26 10 15 17 17 25 21 17 24 19 14 15 5 12 19 11 17 17 30 30 27 31 25 14 18 19 18 20 21 22 23 20 21 23 22 24 24 22 23 23 23 23 22 21 18 18 20 19 15 15 16 16 17 16 14 15 14 13 13 13 13 12 13 13 12 12 15 15 12 13 11 10 12 9 10 7 7 9 8 9 7 9 8 10 12 13 13 12 10 12 11 11 11 10 11 11 11
19 15 12 13 28 14 10 17 14 13 13 12 10 21 14 21 7 10 19 23 16 12 14 20 20 21 23 23 25 24 22 22 22 24 24 23 22 22 21 21 21 20 19 17 16 17 17 17 15 15 15 15 16 15 14 15 13 13 13 15 14 13 14 14 14 12 13 13 13 13 11 9 9 9 8 8 7 9 10 10 9 9 10 12 12 12 12 12 11 12 11 12 13 11 12 13 11
24 19 30 20 10 9 7 4 3 7 9 24 8 10 10 15 8 13 7 12 11 14 15 18 19 21 22 22 22 22 22 20 24 27 25 24 21 19 19 19 18 18 19 18 17 18 18 17 17 17 16 14 15 16 17 16 15 15 13 14 15 14 15 16 16 15 15 12 12 11 11 9 8 9 10 8 11 11 11 10 12 13 13 12 11 11 11 11 11 10 11 10 11 11 11 11 12
23 32 15 8 8 12 17 14 8 8 16 21 6 13 6 10 20 10 11 17 12 16 18 19 19 22 23 22 22 23 24 22 22 24 22 22 20 18 17 17 18 20 19 19 18 16 19 18 19 19 17 18 17 18 18 17 17 16 15 15 13 14 17 17 17 17 15 16 12 12 11 11 9 9 11 11 11 12 13 16 15 14 13 12 11 11 11 10 10 12 13 13 13 10 9 13 16
19 18 12 27 23 22 11 12 8 13 17 12 6 3 8 12 9 7 8 17 14 15 17 20 20 22 20 20 21 20 23 22 23 24 24 22 20 20 19 17 16 16 15 17 16 15 18 17 18 18 18 18 20 20 18 16 16 15 15 16 17 17 16 18 16 16 15 16 14 12 12 11 11 11 13 12 13 15 16 14 13 12 13 13 12 12 10 10 10 12 13 13 11 10 11 15 15
5 16 26 15 14 12 12 26 10 17 9 8 12 5 17 15 10 18 20 19 21 21 21 24 28 26 25 26 27 28 27 24 24 23 23 21 19 18 17 19 19 18 19 17 15 17 18 18 19 17 17 17 18 20 19 18 15 17 17 16 15 16 15 16 16 17 16 15 13 13 13 13 13 13 12 13 15 15 15 13 12 13 12 11 12 12 11 11 12 13 12 14 14 14 15 15 15
19 21 23 20 20 7 13 8 13 15 15 14 12 8 12 11 10 10 18 22 23 30 29 25 25 23 24 26 29 29 28 26 24 24 23 20 18 16 16 16 17 16 16 14 15 18 19 18 19 20 21 19 19 18 18 17 17 17 19 18 17 17 17 16 16 16 16 14 12 12 13 13 14 13 13 15 15 15 13 13 13 12 11 10 11 12 11 10 11 14 15 15 14 15 15 14 13
18 18 15 17 19 13 16 17 8 10 14 16 14 14 16 17 6 9 14 20 26 24 30 27 21 22 24 25 24 28 27 23 24 23 21 19 17 16 16 16 16 18 15 16 16 17 17 17 19 19 19 18 19 17 18 17 16 18 18 19 17 16 16 16 17 15 16 14 13 14 14 14 15 11 14 15 14 12 12 12 12 11 11 11 11 11 10 10 13 15 15 15 16 16 15 14 14
Wind_Speed
9 8 7 5 1 2 2 6 2 4 3 4 3 1 1 2 1 4 7 5 4 2 1 2 10 7 5 4 10 3 3 13 7 10 8 2 2 8 7 14 16 16 14 12 11 12 14 16 18 19 19 18 17 17 17 17 16 16 17 17 16 17 17 17 17 17 16 15 15 14 14 14 13 12 12 11 11 11 11 11 11 11 11 11 11 11 11 10 10 9 9 9 9 9 9 10 10
6 7 6 3 1 2 2 1 3 3 4 6 6 2 2 4 2 2 6 4 1 2 3 5 2 3 4 3 0 0 1 3 1 1 3 3 7 5 7 13 16 18 14 12 12 11 11 13 17 18 18 19 17 16 16 17 16 17 17 18 18 17 17 17 17 17 16 16 15 15 14 13 12 11 11 10 10 10 9 10 10 11 11 10 10 10 10 10 9 8 8 8 8 8 8 9 9
5 6 7 5 3 4 1 4 3 1 1 4 7 4 1 2 4 4 6 6 1 2 4 3 2 2 2 4 1 2 6 2 3 2 1 3 12 4 9 13 13 15 15 11 10 11 10 12 17 17 18 18 17 17 17 17 17 17 17 18 18 17 17 17 17 17 17 16 15 14 14 13 12 12 10 10 9 9 9 10 10 10 10 10 9 10 9 8 7 6 7 8 8 8 8 8 8
4 1 1 3 2 4 1 3 4 3 1 5 9 2 2 1 5 9 9 7 3 3 1 2 2 1 2 3 3 1 2 3 3 7 4 7 2 8 10 12 12 12 11 10 10 10 9 15 18 17 18 17 17 17 17 17 17 17 16 17 17 18 17 17 17 16 16 16 15 15 14 13 12 11 10 8 8 8 9 9 10 10 9 9 9 9 9 8 7 7 7 8 9 9 9 8 8
4 3 2 3 3 1 1 0 2 4 4 3 5 2 2 1 4 9 10 6 9 3 3 1 1 1 2 2 1 1 3 1 0 4 3 3 8 11 12 11 11 11 11 11 11 11 11 19 17 16 17 17 17 17 17 17 17 16 16 16 17 17 17 17 17 17 17 16 16 15 14 13 12 11 9 9 8 8 9 8 8 9 9 9 9 9 8 7 7 7 7 9 10 10 10 9 8
2 3 3 1 0 2 5 0 1 3 8 4 3 5 3 1 4 8 11 12 10 4 5 4 3 3 0 3 2 1 1 0 1 2 5 5 13 13 14 12 11 10 10 9 10 10 10 20 17 15 15 17 17 17 17 17 17 16 16 16 16 16 16 16 16 17 17 17 15 15 14 13 12 11 10 10 10 10 10 10 8 8 8 9 9 8 7 6 6 6 7 8 9 10 9 9 8
2 3 4 3 2 3 5 5 6 6 9 6 5 9 5 1 3 6 10 13 10 8 6 0 1 1 0 2 1 1 5 1 4 2 5 9 13 12 12 12 12 11 10 9 9 10 12 19 17 15 16 17 17 18 18 18 17 16 17 16 16 16 16 16 16 16 17 16 15 14 13 12 12 11 10 10 10 10 10 9 8 7 8 7 8 8 7 6 6 6 7 8 8 8 8 8 7
1 1 1 1 1 1 1 4 6 5 7 8 5 7 6 4 2 2 8 3 9 7 13 5 2 2 5 1 2 2 10 7 4 10 13 12 13 11 10 11 12 12 11 9 9 9 16 18 17 15 16 17 18 18 18 18 17 16 16 16 16 15 15 15 15 15 15 16 15 13 13 12 12 11 10 10 9 9 9 8 7 7 6 8 8 8 7 6 5 5 6 7 7 7 7 7 7
2 3 0 3 3 2 1 5 6 2 5 3 6 7 7 4 3 2 6 5 7 6 6 3 1 5 3 2 3 3 3 7 10 12 13 14 13 11 8 10 13 12 11 10 9 10 11 17 16 16 16 16 17 18 18 18 17 17 16 16 16 15 14 14 15 15 14 14 13 13 13 12 12 11 10 10 9 8 8 8 7 6 6 7 6 7 6 5 5 5 6 6 7 7 7 7 7
1 1 2 2 4 6 3 4 2 6 8 6 9 7 7 3 2 4 7 8 12 7 13 1 4 7 3 3 1 4 2 4 11 12 10 12 12 9 8 8 10 15 11 10 9 10 10 18 17 16 15 16 17 17 16 16 16 16 16 16 14 14 14 14 13 13 13 13 12 12 12 12 11 10 10 9 9 8 8 7 7 6 6 7 6 5 4 4 4 4 5 6 7 7 7 7 7
1 3 2 1 2 5 8 6 6 5 5 4 6 7 8 4 3 4 5 10 10 6 10 4 2 5 1 1 1 1 3 2 11 12 9 8 9 9 8 6 7 9 12 10 9 9 10 12 19 17 16 15 15 15 15 15 14 14 14 14 13 14 15 13 14 13 13 13 13 12 12 11 11 10 9 9 8 8 8 7 7 6 6 6 6 5 4 3 3 3 4 5 6 6 7 7 7
1 3 1 5 7 8 6 7 6 9 6 3 6 5 2 6 2 2 7 8 8 7 8 5 3 4 1 1 1 2 3 5 5 12 11 8 9 9 9 7 6 5 7 10 9 8 9 11 11 16 17 15 14 14 14 14 14 13 14 14 13 13 14 13 13 13 13 13 12 12 12 11 10 9 8 8 7 7 7 6 6 6 5 5 4 4 3 2 2 2 3 4 5 6 6 6 7
3 2 3 2 5 4 5 7 7 7 4 5 9 5 5 4 6 9 9 10 12 8 11 10 3 5 3 2 1 3 4 5 7 9 11 10 9 9 9 9 8 8 8 7 9 9 10 9 10 10 12 18 14 14 13 14 13 14 13 13 13 13 14 14 13 13 12 12 11 11 10 10 9 9 8 7 6 6 6 6 6 5 4 4 3 2 2 1 1 2 3 4 4 5 5 6 6
4 7 8 7 1 6 7 5 4 6 7 5 6 5 1 2 5 8 6 7 14 9 4 6 5 6 1 2 2 4 6 9 10 8 9 10 9 9 10 9 9 8 8 8 8 9 8 8 8 9 10 9 9 12 14 15 14 13 13 13 13 13 13 12 12 11 11 10 10 10 9 9 9 8 7 6 5 5 4 4 4 4 4 4 3 3 2 2 1 1 2 3 4 5 5 5 6
5 2 3 1 3 4 5 7 9 7 12 5 4 3 4 6 8 7 5 8 18 3 1 1 5 8 7 10 6 9 10 12 11 10 11 11 10 9 9 8 8 7 7 6 7 8 8 7 7 8 7 8 7 6 6 11 15 15 14 13 14 14 12 12 12 11 10 10 10 9 9 8 8 7 7 6 5 4 4 4 4 4 4 4 4 4 4 2 1 2 3 3 3 4 5 5 5
3 3 1 5 8 9 4 8 5 8 9 5 6 7 5 7 4 5 7 8 4 2 4 1 3 2 5 16 6 14 15 13 12 12 12 13 11 9 8 8 7 6 5 6 6 6 7 7 6 7 7 7 6 6 6 7 13 14 13 14 15 13 13 12 12 10 10 9 9 8 8 5 6 5 6 4 5 4 4 3 3 3 3 4 4 4 3 3 3 2 2 3 4 4 5 6 5
1 1 3 4 10 9 4 6 9 9 3 8 2 3 5 7 4 4 5 3 6 2 4 1 5 2 7 5 13 17 15 14 13 13 13 10 9 8 7 6 6 6 5 6 6 6 6 7 7 6 7 8 7 7 6 6 9 14 12 14 14 12 12 12 11 10 8 8 7 7 6 3 3 2 2 1 4 1 2 2 2 2 2 3 3 4 4 3 3 3 3 4 5 5 5 6 7
2 5 7 11 7 10 7 10 10 4 7 6 2 7 7 11 5 4 3 3 4 1 2 3 5 5 3 5 16 17 16 18 16 17 13 12 9 9 8 7 7 8 7 7 5 6 6 6 7 7 7 8 7 5 4 4 5 8 6 6 6 8 9 9 6 4 6 3 7 5 3 2 2 2 1 3 0 1 1 3 3 2 2 2 3 3 3 3 3 4 5 5 6 6 6 4 5
6 3 5 16 9 6 10 8 7 5 6 5 7 7 9 12 6 2 3 6 4 1 2 3 7 8 11 12 14 16 16 14 15 14 17 17 13 15 11 9 8 9 8 7 6 6 5 7 7 8 8 7 7 6 4 4 5 5 5 4 4 6 6 5 3 4 3 3 3 3 3 2 2 1 1 1 1 2 2 4 4 3 3 3 3 3 3 4 4 5 6 6 6 6 4 3 4
7 3 11 13 2 4 8 5 8 6 5 8 8 5 6 6 1 0 3 8 6 5 4 2 6 9 12 13 14 14 13 14 12 15 15 14 13 14 13 12 10 9 8 8 8 6 6 7 8 8 8 9 7 5 5 4 5 5 4 4 4 4 4 4 3 3 3 3 3 3 3 2 2 1 3 5 3 1 1 4 4 4 4 4 4 3 4 5 5 6 6 6 4 3 3 4 5
2 5 11 4 5 5 5 4 8 7 4 2 4 3 3 5 4 1 3 6 8 4 8 13 11 13 13 14 15 14 13 13 12 10 11 11 8 8 9 10 10 9 8 7 6 8 8 8 8 9 8 9 8 6 6 5 5 5 4 4 4 3 4 4 4 3 3 3 3 3 2 1 1 1 0 1 2 0 0 2 2 2 2 3 4 2 2 3 3 4 3 3 3 2 3 3 2
1 16 6 0 2 4 6 8 8 5 4 4 5 5 9 1 1 3 4 6 10 5 8 5 17 18 20 17 14 12 14 14 13 12 12 13 14 11 8 6 5 6 6 7 8 8 8 8 9 8 8 8 7 7 6 6 7 5 5 5 4 3 4 4 4 4 4 3 3 2 2 1 1 1 0 1 1 0 0 1 2 2 3 3 2 3 3 2 3 4 3 4 4 3 3 3 3
11 6 6 5 3 5 4 5 5 7 5 5 4 5 2 4 5 2 4 8 8 6 2 12 17 21 22 20 18 15 15 14 13 14 13 12 11 9 9 7 9 8 6 6 6 5 6 6 7 8 8 8 8 6 6 6 5 5 5 5 5 3 4 4 4 3 3 3 2 2 2 2 1 2 2 3 2 1 2 2 2 2 2 3 3 4 4 3 3 4 4 4 3 3 3 3 3
9 8 0 4 5 8 4 5 9 7 9 10 7 1 4 1 5 1 2 6 11 8 4 12 14 15 17 17 19 22 19 17 15 11 9 9 10 10 9 9 6 5 6 6 6 6 6 6 7 7 7 8 7 7 7 6 6 6 6 7 5 5 5 4 4 4 3 3 3 3 2 2 3 2 3 3 3 2 2 2 1 2 3 2 2 2 4 5 5 4 4 4 4 3 4 4 3
11 10 5 3 3 5 8 8 5 5 7 7 4 5 13 5 3 5 7 9 9 5 7 11 15 16 15 18 16 14 13 10 9 8 5 4 5 5 5 5 5 6 7 7 7 7 7 6 7 7 7 8 6 7 7 5 5 5 6 5 5 6 4 4 4 3 3 2 2 3 3 4 2 3 3 3 1 2 2 2 2 3 3 3 1 3 3 4 4 4 4 4 4 4 4 4 3
6 8 4 5 7 3 5 6 9 8 4 4 5 11 12 4 3 6 8 13 3 3 7 13 16 16 17 17 17 16 14 11 9 9 9 8 9 10 8 8 7 8 7 8 8 7 7 8 8 8 8 8 7 7 5 5 5 5 5 6 5 6 5 4 3 3 3 4 4 4 3 3 4 3 3 2 4 4 3 1 2 2 3 3 3 4 3 4 4 4 4 3 3 4 3 4 2
1 5 12 10 9 7 5 6 5 6 4 5 7 10 11 2 6 8 3 8 4 8 8 9 15 16 15 13 11 9 13 14 15 10 9 9 10 11 10 8 7 6 8 8 7 8 8 9 8 6 5 5 5 5 4 4 5 5 5 5 5 6 4 4 3 3 4 4 5 3 3 3 3 4 4 3 2 2 2 0 1 1 1 2 2 3 2 4 4 4 4 3 3 3 4 4 2
7 3 3 10 12 11 6 6 7 2 5 5 6 11 10 3 5 10 6 4 7 13 9 11 12 13 12 13 12 11 11 11 11 13 16 15 13 11 10 10 9 9 10 9 7 7 9 10 10 8 7 6 6 5 5 6 6 6 6 5 5 6 4 4 4 4 4 5 3 3 3 4 4 4 4 3 3 2 1 1 1 1 2 3 2 3 3 3 3 3 3 2 3 2 4 3 2
5 6 9 5 5 11 13 13 7 4 6 3 3 3 10 6 5 6 10 3 6 11 12 13 11 10 12 13 11 11 12 11 11 12 14 11 7 8 12 11 13 13 10 12 10 10 10 10 10 10 11 10 10 10 9 8 7 7 6 6 6 5 5 4 4 5 5 4 3 3 4 4 4 5 5 5 5 4 3 1 1 2 2 3 3 3 3 2 1 1 1 1 2 1 0 2 1
2 3 3 5 6 8 9 7 10 7 5 4 5 9 12 11 8 8 8 7 5 8 10 11 9 10 11 12 12 10 9 9 12 12 11 10 10 10 11 7 8 9 10 10 13 12 9 7 8 9 11 12 12 10 9 8 7 6 6 6 5 5 5 5 5 5 5 5 3 3 3 4 4 4 5 4 4 4 1 2 3 3 2 2 3 3 3 2 3 2 2 2 3 2 3 2 2
2 3 4 6 3 9 4 6 6 11 6 6 7 10 10 7 4 8 7 8 14 11 12 11 10 11 11 11 12 13 13 13 14 12 10 9 8 8 10 9 10 9 7 9 14 14 12 11 10 10 10 9 9 9 9 8 6 6 6 5 5 4 4 5 5 5 5 5 3 3 3 3 3 4 3 5 4 4 1 1 1 1 2 2 3 3 3 3 2 3 2 3 3 2 2 2 2
1 2 9 2 10 2 4 7 10 12 3 9 7 10 10 8 7 7 6 5 9 13 11 11 12 13 13 10 12 12 12 8 8 9 9 8 9 9 11 11 11 12 11 11 12 14 15 14 12 7 8 9 9 9 7 7 6 6 5 5 4 4 5 5 5 6 4 4 5 5 4 3 4 4 4 4 5 2 0 1 3 3 2 2 3 4 2 4 2 3 2 2 1 3 3 4 3
2 7 0 6 4 5 1 6 7 11 5 5 15 4 1 8 7 8 3 6 7 10 10 12 14 15 14 11 9 10 8 7 8 9 10 9 8 8 9 10 10 11 10 12 13 13 13 14 9 10 10 8 8 8 8 6 6 6 5 4 5 4 5 6 5 3 4 5 4 4 4 4 4 4 3 3 4 2 1 1 2 3 3 2 3 3 3 4 3 3 2 1 1 1 2 3 5
5 1 5 2 6 2 7 2 4 8 12 7 7 9 4 3 4 8 3 8 5 8 11 13 14 13 13 12 12 12 12 12 14 14 13 11 8 7 7 9 10 11 11 11 12 14 15 11 11 11 9 10 10 10 9 7 6 5 4 4 3 5 4 5 5 5 5 4 4 4 4 4 4 4 3 3 4 2 2 3 2 3 4 3 2 2 4 3 3 2 1 1 1 0 2 3 4
5 1 4 5 1 6 8 7 4 7 8 11 5 8 5 6 4 3 4 6 10 11 17 14 14 13 12 13 13 14 13 15 16 15 11 9 8 8 8 9 10 11 10 12 12 12 9 8 11 14 10 7 6 8 7 7 6 5 4 4 4 3 3 3 4 5 4 4 4 4 4 4 4 4 3 3 4 3 2 1 1 2 2 3 3 3 3 3 1 0 0 1 1 2 2 2 3
6 5 5 3 6 4 5 6 4 10 5 8 7 6 7 8 7 5 3 5 6 8 11 12 13 13 14 14 14 13 15 17 13 7 7 5 6 8 8 8 8 9 10 12 13 11 9 10 9 8 6 8 7 7 7 7 7 7 7 4 4 2 3 3 3 3 3 3 3 4 4 4 3 4 3 3 4 3 2 0 1 2 2 2 3 3 3 2 1 0 0 1 3 2 1 1 2
5 4 2 3 3 4 3 3 4 4 4 7 6 5 7 9 9 8 8 4 5 7 11 14 11 12 13 12 14 17 16 15 5 6 5 5 6 7 8 8 9 9 10 11 12 10 11 13 13 12 7 8 8 8 8 9 8 6 5 7 5 3 4 3 3 2 3 3 3 3 4 4 4 3 3 3 4 2 1 0 1 2 1 2 1 2 3 2 1 0 1 1 1 2 2 3 4
3 2 3 6 4 4 3 4 4 3 4 1 4 7 8 10 10 11 5 5 7 12 13 17 14 12 13 15 16 16 9 4 7 7 6 6 6 8 8 8 10 12 9 10 12 11 10 11 12 9 6 8 9 9 9 8 8 8 8 6 4 3 3 3 2 2 4 4 4 4 4 4 4 4 3 3 3 2 0 1 1 1 2 2 3 2 2 2 2 2 1 1 1 1 0 2 5
6 4 2 1 4 3 7 6 4 1 4 6 1 6 7 10 11 9 7 9 6 12 17 17 18 14 11 13 15 10 7 8 7 7 8 8 8 8 8 7 8 8 8 8 7 7 7 9 8 8 8 7 7 8 8 7 4 4 5 5 6 4 2 2 3 3 4 5 4 4 4 4 4 3 2 2 3 2 1 1 2 2 1 1 2 3 3 5 5 3 2 2 0 2 1 2 5
6 4 4 4 3 3 3 5 2 1 3 2 5 5 6 6 5 3 3 5 1 5 6 12 18 18 16 17 16 15 13 11 13 13 12 10 9 9 8 7 7 6 6 6 5 3 0 5 6 7 8 7 7 6 5 5 7 7 8 8 6 4 3 3 4 4 4 5 5 4 3 3 3 3 2 3 3 3 2 0 2 1 4 2 2 4 4 5 5 5 3 3 2 3 3 3 3
4 5 4 4 4 2 2 2 4 1 0 2 4 1 5 4 5 2 1 1 2 4 4 1 5 11 16 13 8 9 15 16 14 11 11 11 10 9 8 8 8 8 9 11 7 4 1 4 3 4 7 7 5 5 6 8 9 10 10 9 7 7 6 4 4 4 4 3 4 4 3 3 3 2 2 3 3 2 2 2 3 4 4 3 3 5 5 4 3 3 3 4 5 1 3 2 4
7 5 6 5 3 5 6 5 3 2 4 2 5 1 6 5 5 8 2 1 3 4 8 10 13 11 7 10 15 12 8 7 12 13 13 11 9 9 8 10 10 9 12 11 11 14 13 10 5 6 4 5 6 6 7 7 8 10 9 8 6 4 4 4 4 5 4 4 4 3 3 3 3 2 4 5 6 6 6 4 3 4 5 5 5 4 3 4 5 5 4 3 5 3 4 5 4
7 7 8 5 5 3 4 5 0 1 4 3 1 9 5 5 6 4 4 6 9 4 9 10 8 8 8 11 11 11 11 9 7 7 10 11 11 10 10 11 11 13 11 10 10 11 12 13 13 10 7 5 5 6 6 7 7 7 9 8 8 7 6 1 1 2 4 4 4 4 3 4 3 5 6 7 7 6 5 4 4 5 5 4 3 4 6 5 4 4 4 6 4 3 4 5 5
7 4 11 8 5 5 4 2 3 2 2 4 1 4 4 6 9 2 5 8 8 7 8 6 7 8 10 9 9 8 7 8 7 10 12 10 11 11 12 13 13 13 11 11 10 9 12 12 8 6 4 4 3 6 6 6 8 7 7 7 7 7 7 6 4 4 4 4 5 4 4 4 5 6 7 6 6 5 5 5 4 4 5 4 4 5 5 3 4 5 5 5 6 6 6 6 4
2 5 10 10 8 9 4 3 1 1 1 8 3 0 1 4 5 3 2 5 5 8 8 10 10 12 12 7 6 7 7 8 10 12 12 11 13 14 13 13 11 10 10 11 10 9 8 7 6 6 6 6 5 7 7 6 7 7 8 8 7 4 5 5 5 5 5 4 6 5 6 6 6 6 6 6 6 5 5 5 5 5 5 4 4 5 5 5 6 6 6 7 7 7 6 4 6
3 6 5 4 4 4 5 4 4 3 2 9 7 3 3 6 4 2 1 4 7 9 11 14 14 16 13 7 8 9 9 9 10 11 11 12 13 12 10 8 9 10 10 11 11 10 10 9 8 7 8 7 7 7 6 6 6 7 8 8 9 7 6 5 5 6 6 5 6 6 5 6 5 5 5 5 6 6 6 5 6 6 5 4 4 4 5 6 6 7 6 6 6 7 5 6 6
3 6 4 1 1 1 2 3 3 1 6 10 6 5 4 4 6 7 9 7 10 11 6 8 8 5 4 7 10 10 9 10 11 12 11 11 10 10 10 11 10 9 9 11 11 11 11 12 12 10 9 7 7 6 6 7 6 7 8 8 9 10 8 8 7 6 6 6 6 6 5 5 4 5 5 6 6 6 6 6 6 5 4 4 5 6 6 5 5 6 5 6 7 7 6 6 7
4 4 5 1 5 1 1 1 1 4 7 3 5 6 7 6 5 3 10 5 8 15 15 16 14 14 11 10 11 11 11 12 13 13 14 12 12 11 10 11 11 11 10 11 10 10 11 12 12 12 9 9 8 8 8 8 7 7 7 9 9 9 10 8 9 9 7 8 7 7 5 5 5 5 5 6 6 6 6 5 5 5 5 5 6 5 5 5 5 5 6 6 6 6 6 6 6
5 5 7 9 3 3 4 3 8 8 5 2 4 6 1 7 8 10 11 17 11 12 14 18 18 15 12 12 14 12 12 13 13 13 12 12 12 13 13 13 12 12 12 13 12 10 10 10 14 16 15 12 10 9 9 8 8 8 8 9 8 8 8 7 8 8 7 7 7 7 6 6 4 5 5 6 5 5 5 6 5 5 5 5 5 5 5 5 5 6 6 6 6 6 6 6 6
9 8 9 10 6 7 7 2 1 1 4 6 4 2 5 3 7 13 13 16 19 15 16 10 13 14 17 15 14 12 13 13 12 12 13 14 13 13 14 13 12 11 12 13 11 9 8 7 6 6 7 8 8 8 8 8 8 8 9 9 8 8 8 8 6 8 7 6 7 6 6 5 6 5 5 6 4 5 5 5 5 5 4 5 5 5 5 4 5 6 5 6 6 5 6 6 5
10 2 6 6 4 3 5 3 7 7 5 4 1 4 5 5 7 5 17 17 16 7 2 7 11 12 11 12 13 13 12 13 11 13 15 14 15 15 13 12 10 10 10 11 9 8 7 8 8 6 7 7 8 7 6 8 7 8 8 8 8 7 7 7 6 7 8 8 6 7 5 5 6 5 6 4 4 5 5 6 5 5 5 5 5 5 5 5 5 5 5 5 5 4 5 6 6
7 4 6 5 11 6 2 5 6 4 3 4 2 5 6 7 3 6 3 3 5 8 6 10 11 13 15 14 14 14 13 13 13 14 14 15 14 12 11 10 10 10 10 9 10 9 9 8 8 7 7 8 8 8 7 7 8 8 9 9 9 8 8 8 7 7 7 7 7 7 6 5 5 5 5 5 5 6 7 6 5 5 5 5 4 4 4 5 4 5 4 4 5 4 5 6 6
7 8 11 7 5 4 2 1 0 1 3 8 1 2 3 7 4 4 3 7 5 9 8 9 11 14 15 13 13 13 13 13 14 16 15 15 12 11 11 11 10 10 9 10 9 9 9 9 9 9 9 8 8 8 8 7 8 9 8 9 9 9 10 10 9 10 9 7 7 7 6 5 5 5 6 5 6 7 7 6 6 6 5 4 4 4 4 4 4 4 4 5 5 4 5 6 7
7 11 7 1 1 3 3 3 1 1 5 5 2 5 2 4 5 5 4 6 4 7 8 10 11 13 14 12 12 12 13 14 14 15 14 14 11 11 10 10 10 9 9 9 9 8 8 8 9 10 10 10 8 8 8 8 9 9 9 9 8 8 10 10 10 11 9 9 7 6 6 6 6 5 6 6 7 7 7 6 6 5 4 4 4 4 4 4 4 4 4 4 4 4 5 7 8
10 8 5 8 5 6 2 2 2 0 2 2 0 0 3 6 4 1 2 8 7 8 9 12 14 13 12 13 14 12 12 11 14 15 14 13 11 12 11 10 8 8 7 8 8 8 7 7 8 9 9 9 8 7 7 7 8 7 8 9 10 10 9 10 9 9 9 9 8 7 7 6 7 7 7 7 7 7 6 5 5 5 5 5 5 4 4 4 4 5 5 6 6 5 7 9 8
1 9 9 4 5 2 3 7 3 5 3 2 4 2 6 5 3 8 10 13 12 12 12 14 17 16 14 15 16 17 15 14 14 14 14 13 11 11 10 10 10 9 8 8 8 7 8 8 9 9 9 9 9 8 6 8 8 9 10 10 10 10 9 9 9 10 9 9 8 8 8 8 8 7 7 7 7 6 6 6 5 5 5 4 4 3 4 5 6 6 6 7 7 8 9 9 8
7 8 9 4 2 2 5 1 3 2 3 3 3 1 3 4 5 5 8 10 14 18 16 13 13 13 14 17 17 17 17 14 14 14 14 13 11 9 8 7 8 7 6 6 7 8 8 8 9 10 11 11 12 11 9 8 9 10 12 12 11 10 10 9 10 10 10 8 7 7 8 8 8 7 7 7 7 6 5 5 5 5 5 4 5 6 5 5 6 7 7 7 8 9 9 7 7
8 6 6 9 8 3 7 6 1 2 1 3 4 4 6 8 2 5 6 8 12 14 16 15 13 14 15 15 15 18 16 13 14 14 13 11 9 8 7 7 7 7 6 6 8 8 9 9 10 10 11 10 11 10 9 10 8 10 11 12 11 10 10 9 11 9 9 8 8 8 8 8 9 6 6 7 6 5 5 5 6 5 5 6 6 6 5 5 7 8 7 6 7 9 9 8 7
Wind_Direction
322 319 306 305 52 110 65 1 36 314 41 288 316 23 264 266 205 323 322 360 42 149 274 301 122 156 182 213 203 269 273 151 206 132 216 251 59 147 113 126 132 133 140 147 151 155 157 158 158 161 160 157 155 151 145 143 140 139 137 136 133 130 128 127 124 121 120 119 118 118 118 118 118 117 117 116 115 111 106 107 109 109 105 103 99 96 90 84 80 77 78 78 79 79 76 77 79
311 316 304 316 312 71 323 97 102 347 37 341 271 111 242 280 17 293 312 329 155 325 330 51 60 281 327 86 44 327 25 5 252 210 316 273 100 88 125 132 139 140 143 146 150 148 153 157 159 161 161 158 155 151 146 143 141 140 139 138 135 132 130 128 125 122 122 121 120 118 118 119 118 117 116 110 106 108 108 109 110 111 110 108 104 97 89 81 73 71 71 75 77 80 78 76 77
321 343 333 17 26 62 69 37 311 51 58 291 283 175 246 347 304 289 277 277 335 359 359 52 42 331 326 16 300 132 232 83 78 133 31 103 130 170 142 139 138 137 141 144 146 145 150 157 160 160 161 158 155 151 146 143 142 142 140 139 136 134 131 130 126 125 123 122 121 120 119 119 120 120 113 110 110 110 111 114 115 112 111 110 105 95 85 78 70 63 65 67 70 74 77 75 72
313 19 25 37 321 30 62 25 107 130 195 230 291 230 185 161 293 291 279 290 320 92 326 312 176 202 128 242 244 27 265 279 199 153 164 189 170 134 141 139 135 135 138 145 143 143 150 160 158 160 162 158 153 151 146 143 142 143 141 141 138 134 133 131 128 126 125 124 123 122 122 123 122 120 117 113 112 112 110 113 117 117 112 106 96 89 84 73 58 51 52 59 63 66 69 70 69
19 318 76 91 105 357 99 209 150 118 250 207 252 228 147 193 272 297 296 308 304 117 181 171 26 311 191 208 114 202 241 147 323 184 131 157 115 140 136 133 132 135 142 144 141 143 151 157 155 160 160 158 153 150 146 142 142 142 143 142 138 135 133 132 130 128 127 125 124 124 125 124 122 116 111 106 103 109 112 107 108 113 107 102 97 87 77 69 54 44 43 50 57 61 63 67 65
53 33 345 93 230 176 50 44 301 208 222 159 244 264 142 175 292 287 302 307 296 299 172 192 202 168 321 250 182 251 249 105 184 209 155 170 139 141 136 133 134 135 138 140 141 143 154 156 156 158 159 157 152 149 145 143 142 143 145 141 138 135 135 133 131 129 128 128 127 127 126 126 124 113 111 110 107 107 107 104 106 117 118 114 101 92 89 76 61 47 43 47 53 58 62 64 62
343 34 353 29 15 54 187 163 220 218 254 170 239 269 255 204 251 315 310 327 313 317 145 210 114 348 13 283 327 250 7 214 132 196 134 134 128 133 135 133 133 133 138 141 141 144 152 153 155 156 159 155 152 149 144 142 143 145 145 141 138 136 134 134 133 131 130 130 129 128 129 130 128 117 114 118 121 114 113 118 123 127 123 120 113 101 90 79 61 51 45 48 52 57 61 61 59
108 127 280 120 217 71 160 193 221 172 262 181 227 252 263 235 227 302 292 328 301 343 309 111 64 143 240 334 242 285 20 5 92 96 106 124 124 126 130 134 131 135 138 141 143 147 154 150 153 155 157 154 151 148 145 143 146 147 145 141 138 137 136 135 134 133 133 132 131 131 133 133 135 128 121 121 127 132 130 132 133 133 136 119 105 93 85 77 65 52 50 50 50 54 54 53 53
346 85 309 72 185 30 83 185 225 234 283 290 265 239 261 226 210 240 281 260 300 282 268 318 113 336 244 213 221 310 29 18 75 96 113 120 123 128 133 138 138 138 140 142 147 151 148 151 151 155 154 153 149 147 146 146 147 147 144 141 139 138 137 134 135 133 131 133 135 136 135 138 136 135 127 128 127 126 133 139 137 128 135 125 106 99 92 86 70 53 50 46 44 42 43 45 41
28 93 255 175 119 209 205 284 179 227 234 226 242 247 252 219 190 194 257 288 264 279 279 315 211 241 261 194 316 1 21 64 89 83 96 112 116 115 120 130 140 137 140 145 151 148 148 153 151 153 152 150 149 148 146 146 147 147 143 139 137 138 137 133 133 134 131 134 136 138 138 139 139 138 132 132 133 132 123 122 134 113 113 119 114 104 101 93 73 51 41 38 34 30 31 32 31
220 15 146 143 192 214 206 247 238 282 260 264 271 236 247 266 239 242 236 256 267 260 278 76 8 226 111 310 93 277 52 64 104 109 107 106 103 109 108 112 124 135 140 148 148 147 152 150 153 152 150 148 148 146 144 145 146 143 138 135 136 139 138 135 138 134 135 136 136 138 139 140 142 137 133 137 140 139 139 129 134 140 120 121 118 116 110 98 79 50 34 32 28 25 20 22 22
126 171 152 206 207 200 211 217 219 243 262 311 275 241 202 226 220 252 251 269 271 253 247 138 233 149 151 279 289 2 61 51 104 120 118 114 106 107 114 115 115 115 135 142 143 147 150 151 150 153 149 146 146 144 144 144 142 138 136 137 136 138 140 140 137 137 139 138 139 140 140 140 134 130 130 138 149 151 150 148 147 150 149 155 141 129 114 88 72 52 26 22 22 17 14 14 16
152 147 112 121 216 195 192 213 231 234 244 237 244 251 197 241 235 235 251 249 265 277 275 205 168 126 218 206 253 119 79 106 122 122 119 118 118 118 117 122 127 134 140 140 145 150 151 149 146 147 146 147 144 145 143 140 137 136 136 138 140 140 143 141 139 141 140 141 140 139 135 132 131 130 127 130 144 156 163 153 160 159 156 156 148 154 141 109 68 359 7 5 7 6 3 6 9
157 185 141 230 117 201 179 214 204 220 249 229 238 258 166 215 228 227 237 266 267 245 252 200 161 143 64 74 232 180 142 131 129 124 117 115 118 119 121 124 131 140 143 149 152 151 145 143 141 137 144 139 144 146 141 138 135 136 139 142 141 142 142 141 142 142 142 141 137 136 134 133 130 129 130 134 141 142 150 146 159 178 188 169 186 186 175 183 153 349 343 352 356 350 349 353 359
202 168 120 171 202 179 209 200 193 205 249 187 237 237 226 229 242 260 227 248 264 258 257 133 155 119 227 177 245 189 148 144 132 126 116 111 111 117 119 124 130 135 141 146 149 147 140 138 135 133 132 133 134 127 135 139 138 142 143 142 144 144 142 142 143 145 142 139 138 135 136 133 133 132 135 139 139 147 159 165 172 183 190 194 197 200 191 188 205 265 303 329 336 334 333 341 344
187 122 100 191 222 188 236 204 165 211 247 203 235 230 265 271 240 255 255 208 264 41 122 219 197 195 165 186 205 146 146 137 130 124 120 115 114 112 120 126 134 136 137 139 145 147 144 138 129 127 125 128 125 124 132 138 142 144 145 145 147 146 145 144 148 145 141 138 136 133 134 134 134 137 146 146 152 163 172 159 179 189 196 206 204 203 209 215 229 262 291 314 308 312 317 324 327
90 114 237 207 234 194 196 185 159 221 236 247 240 209 225 261 240 225 275 155 248 215 172 193 196 13 192 192 125 135 133 130 129 127 122 123 124 122 124 135 135 135 139 144 148 152 148 139 131 128 131 127 125 130 131 131 149 148 148 147 148 148 149 150 148 145 138 136 131 135 130 108 118 143 137 122 170 168 193 205 206 208 222 210 217 219 229 239 254 270 287 289 290 297 311 320 327
118 206 206 231 210 198 182 189 188 170 195 238 197 213 207 252 276 261 336 281 219 100 168 324 35 43 82 96 125 132 137 141 146 141 142 136 141 139 149 153 152 156 155 155 159 151 143 140 133 126 128 130 130 126 122 132 146 143 142 148 148 154 154 148 139 135 138 116 142 137 128 150 139 123 115 166 117 200 243 236 251 244 246 255 237 246 246 264 274 282 288 292 305 315 323 342 334
195 201 186 229 186 223 151 195 191 137 217 221 221 209 198 232 229 295 304 292 280 127 1 31 79 72 89 105 122 133 142 144 152 150 150 152 160 158 156 155 161 158 163 158 154 149 145 142 143 134 133 134 130 119 121 127 122 132 138 139 150 153 155 135 121 131 101 130 125 141 158 157 142 123 145 196 188 245 261 265 253 262 269 265 267 268 272 281 288 292 297 307 322 340 358 336 333
224 148 219 226 161 210 203 143 205 203 171 214 231 244 198 253 259 288 247 260 280 208 143 45 129 138 131 130 136 141 147 155 158 159 157 159 159 157 156 162 165 167 159 162 154 147 146 149 145 141 139 136 134 127 131 130 132 139 143 140 140 131 120 120 125 122 139 143 154 158 157 156 137 108 206 214 220 200 306 300 278 280 288 297 285 324 332 335 320 326 325 324 344 343 333 328 323
205 212 226 205 184 178 231 197 203 220 182 215 218 276 306 264 220 216 291 329 291 251 200 163 171 149 142 144 144 149 155 161 162 162 156 156 153 161 164 164 161 161 162 147 147 154 155 152 146 145 142 137 135 137 145 143 141 141 145 150 141 131 124 134 135 141 155 162 167 169 142 148 110 107 23 340 16 85 19 329 323 340 352 324 326 331 310 308 330 313 316 313 309 305 304 293 295
135 225 219 277 147 201 232 212 220 214 204 211 265 265 248 347 273 252 232 244 267 225 213 224 154 152 148 152 157 159 164 164 167 168 170 163 164 161 155 145 141 145 143 150 159 155 154 151 148 144 140 134 139 147 153 151 144 151 154 159 153 142 146 152 150 160 165 173 173 159 131 117 105 128 151 284 334 106 205 260 272 287 311 294 307 303 287 294 298 297 301 301 302 296 280 276 263
240 243 231 212 191 189 204 210 223 210 232 222 237 233 296 262 263 256 223 229 253 236 161 159 160 161 159 153 154 164 169 170 172 175 167 165 165 162 159 161 160 157 153 152 143 146 141 141 141 144 139 135 135 140 146 149 156 152 152 161 159 157 157 162 173 171 180 170 166 159 160 174 179 181 220 232 238 175 215 225 244 254 263 282 306 306 303 295 289 289 289 282 283 286 289 283 273
247 243 42 225 204 235 255 211 207 207 210 232 228 334 263 193 243 222 191 252 251 281 192 165 151 145 143 151 167 168 173 172 176 173 167 164 161 162 161 160 152 128 139 140 136 144 146 138 137 139 136 141 144 143 150 156 153 150 155 170 169 180 163 185 185 184 170 176 178 181 189 176 197 217 230 232 232 176 224 234 241 267 261 269 291 271 283 295 296 287 289 297 302 306 309 303 304
234 245 243 275 198 234 242 255 255 238 240 242 277 264 250 205 228 323 291 278 280 351 126 139 143 149 157 157 165 164 157 159 157 150 135 137 148 137 129 130 138 136 138 142 140 142 145 140 136 138 147 150 150 149 163 154 147 144 163 176 162 192 176 192 192 164 174 183 201 196 192 190 200 222 233 238 200 226 229 218 225 241 255 261 239 261 256 276 279 275 276 281 291 291 294 292 299
238 245 256 243 254 236 228 242 249 240 246 209 244 251 260 211 283 277 250 270 304 138 115 146 143 151 162 167 164 163 159 151 141 151 159 153 157 156 161 159 149 152 146 141 142 145 143 144 147 155 160 158 155 155 155 147 152 160 175 182 168 189 188 197 170 176 184 181 208 214 206 183 188 208 226 203 185 224 226 213 237 236 222 233 216 242 235 242 255 261 252 252 263 260 268 264 257
224 197 226 240 246 248 250 228 243 253 231 215 217 253 262 176 179 268 280 252 114 115 131 149 151 158 164 162 153 141 145 159 165 153 150 164 169 172 164 150 142 129 131 138 143 147 147 146 154 156 153 147 137 141 136 144 156 178 185 189 173 192 192 186 180 174 185 202 212 205 209 195 184 199 204 200 197 198 223 319 287 313 285 253 226 249 248 228 243 246 240 247 254 274 270 276 283
301 273 274 242 237 239 246 251 248 225 270 216 194 249 259 213 184 233 236 258 154 132 150 162 162 159 154 151 146 149 157 163 158 164 166 172 181 172 155 148 137 141 146 151 151 147 147 156 156 155 154 148 148 145 153 158 176 186 192 191 187 196 177 187 183 175 207 214 210 183 195 202 198 199 178 180 165 139 161 153 258 261 254 282 265 252 253 240 242 251 256 243 231 221 254 259 249
267 277 280 266 251 242 224 234 242 183 251 239 149 281 270 223 219 219 229 149 158 153 157 167 168 151 140 145 143 157 167 167 171 181 183 174 155 153 156 162 155 154 156 148 145 146 156 161 161 164 162 163 163 167 172 173 178 186 189 193 199 185 181 179 183 193 208 216 217 173 183 188 185 177 177 171 162 157 154 143 283 253 239 251 269 276 301 315 320 280 223 215 183 187 258 320 302
247 262 207 285 270 257 232 221 225 216 233 186 125 254 251 253 228 236 236 140 145 158 163 165 152 146 141 145 157 155 158 167 187 190 179 173 163 158 154 161 157 144 145 144 142 150 155 162 168 167 170 171 175 172 171 176 180 177 189 199 192 176 179 180 196 200 202 210 206 168 171 186 175 166 153 136 125 113 123 214 221 244 251 271 295 308 303 305 294 327 302 351 357 19 340 298 344
206 247 159 218 214 246 193 198 198 222 189 191 160 242 258 265 270 249 241 152 155 171 175 161 154 148 147 153 156 167 178 183 185 184 183 171 152 154 150 145 141 139 138 146 148 147 153 168 174 177 166 167 176 174 172 177 167 177 191 197 185 181 183 188 201 201 202 202 166 154 167 180 155 133 120 133 121 125 159 266 295 273 302 329 319 298 301 301 298 287 306 334 327 341 317 314 9
252 162 226 197 202 329 211 201 191 207 203 172 158 242 244 253 254 251 237 161 177 167 171 162 154 154 156 156 162 170 180 183 186 190 185 170 159 157 153 153 149 150 145 142 145 152 165 174 180 143 150 174 181 174 174 169 168 180 186 184 187 186 177 190 201 207 190 152 158 155 162 145 111 100 104 116 109 93 82 2 307 322 338 337 307 303 329 298 274 287 285 242 282 303 360 335 354
231 208 316 213 173 247 321 230 193 193 203 195 191 222 262 271 241 259 229 151 202 159 164 161 159 160 157 158 162 168 164 192 201 202 190 177 173 159 149 146 152 147 139 145 151 163 175 179 152 145 168 181 180 172 164 164 168 179 168 165 173 174 182 189 181 158 144 158 151 145 143 121 112 111 118 107 101 91 66 5 339 341 323 306 306 309 286 248 252 276 294 277 174 288 351 324 322
251 154 196 211 185 153 225 309 228 190 189 227 210 208 223 248 241 220 201 167 165 145 158 158 162 162 164 160 168 174 183 185 195 199 197 184 164 141 132 144 143 143 145 149 160 168 182 166 146 159 172 185 178 168 166 165 169 148 142 146 148 164 165 153 151 151 156 154 149 143 131 124 124 121 118 86 78 89 72 36 0 322 303 294 259 268 279 303 288 228 292 339 352 133 306 306 307
165 142 152 250 283 199 202 188 251 162 209 212 182 200 222 248 279 274 226 187 161 157 162 162 166 165 162 172 176 184 188 193 202 199 184 171 152 143 138 142 146 153 154 157 164 179 171 157 161 170 169 162 152 151 144 145 133 117 110 121 118 120 122 139 145 142 156 150 142 132 125 126 129 124 103 88 90 76 76 32 309 273 255 266 288 304 305 329 334 334 200 305 309 244 238 266 276
175 154 175 164 201 240 208 216 249 176 197 219 193 181 208 240 259 279 265 200 174 161 164 164 166 167 171 177 185 188 196 203 202 177 167 158 141 139 139 146 151 158 161 166 173 170 159 157 171 173 165 141 138 137 135 137 141 147 139 107 103 111 129 136 122 137 132 127 130 124 121 117 108 109 111 107 106 110 112 139 280 292 323 308 279 289 294 287 247 106 350 309 353 335 331 312 308
140 170 146 201 180 266 267 265 248 170 184 217 205 172 192 217 227 230 227 142 110 145 159 168 167 171 179 185 192 199 200 200 157 156 152 144 137 141 140 146 154 164 169 168 174 174 166 166 169 175 168 146 145 146 149 150 154 142 130 151 149 159 146 127 117 108 95 89 90 90 98 95 99 101 95 94 87 99 119 106 293 301 331 321 307 271 264 251 234 208 97 29 59 20 342 342 342
191 135 175 232 190 224 243 228 253 221 176 297 193 173 206 213 221 229 218 145 170 163 165 173 178 180 185 191 200 205 190 87 131 148 157 150 146 143 147 154 159 161 173 172 182 180 171 168 168 155 156 159 158 162 156 162 164 166 152 157 145 138 131 130 116 79 80 77 80 89 92 95 98 96 99 104 115 118 31 5 327 323 358 333 293 300 302 36 25 31 104 49 336 106 32 13 340
238 193 187 274 275 220 278 273 271 269 151 253 198 174 216 225 231 238 192 190 193 182 171 177 176 183 194 205 207 187 153 170 151 164 164 163 152 151 155 159 165 164 161 177 190 181 158 162 164 165 163 157 164 160 159 154 136 130 129 143 139 124 88 81 75 84 81 85 80 89 99 99 100 101 130 121 103 78 53 17 331 327 313 323 351 29 32 36 31 26 16 132 13 352 32 10 23
210 203 193 204 237 143 280 283 303 212 147 211 191 192 256 249 249 255 249 212 255 212 212 178 173 179 193 202 196 188 185 169 176 178 165 164 153 154 153 151 140 119 86 25 9 25 99 179 170 171 166 159 164 163 141 120 112 101 90 106 94 93 126 98 76 69 73 76 71 85 91 109 110 124 137 104 92 78 82 341 277 324 37 43 81 79 53 47 30 29 23 26 97 46 4 348 44
197 188 176 189 237 234 162 248 308 233 253 124 82 35 317 272 252 268 310 332 147 196 202 211 239 206 198 199 198 196 188 183 178 164 167 163 156 160 153 138 128 133 131 140 125 120 117 338 314 203 169 160 147 145 138 128 113 99 103 96 96 85 69 64 78 59 57 93 92 82 102 101 103 105 77 75 69 51 45 37 55 68 79 66 71 72 63 55 46 40 32 49 45 107 35 354 356
213 217 176 187 182 221 278 300 351 12 299 275 163 298 256 276 257 231 261 57 190 200 191 205 196 196 185 188 200 197 192 184 183 178 165 157 140 138 143 141 145 153 163 163 159 168 159 163 192 240 183 148 148 148 146 136 132 133 130 126 123 100 115 124 148 155 135 116 110 99 74 77 79 83 72 66 67 71 69 55 59 70 68 59 60 72 73 59 43 44 28 52 50 28 120 50 1
181 233 167 192 202 198 240 269 157 332 202 276 152 191 265 315 275 201 184 187 207 203 212 209 191 193 196 203 198 192 181 160 138 131 146 147 148 141 148 155 162 169 173 161 168 173 169 171 181 189 180 159 142 147 151 136 132 144 145 145 144 147 142 140 77 90 109 102 96 90 82 66 64 76 70 71 69 71 73 61 61 65 65 64 58 66 61 58 59 56 47 57 48 47 71 75 40
219 186 164 189 205 218 222 200 161 223 253 282 174 157 187 276 272 248 185 189 202 215 226 214 204 203 208 204 195 184 159 149 144 149 155 149 149 153 162 168 170 175 166 164 171 174 175 179 178 175 150 136 136 148 151 148 142 144 129 127 138 145 156 159 149 118 96 107 99 90 81 64 62 63 71 69 77 85 86 78 69 67 68 58 64 63 70 66 72 56 58 66 63 56 66 85 73
207 159 154 183 194 219 192 190 181 230 346 280 329 71 175 250 263 14 159 179 239 235 223 218 211 211 212 190 157 153 139 141 150 154 157 153 155 166 172 173 168 162 160 165 171 174 164 164 158 147 145 142 157 164 155 160 150 147 136 131 125 113 119 124 119 113 106 103 105 87 79 73 64 60 65 76 76 77 78 78 74 74 70 61 69 71 64 64 64 66 58 55 61 58 56 75 76
208 138 145 147 182 206 175 203 209 253 209 249 243 167 205 278 267 124 222 255 224 223 216 219 211 208 202 157 142 138 130 137 152 157 155 157 166 172 168 150 150 163 171 170 164 161 160 161 159 156 152 156 165 170 157 146 143 136 134 138 133 129 118 108 114 124 125 121 106 92 84 76 73 68 61 66 70 67 70 69 69 66 64 65 66 70 73 66 62 65 62 70 69 71 53 61 72
180 121 153 172 110 190 169 148 152 97 231 237 228 183 164 273 252 187 169 213 203 213 232 240 232 224 117 136 149 147 143 146 153 157 161 162 163 154 154 161 159 165 171 171 171 170 167 169 168 167 168 161 164 163 152 146 145 145 140 141 138 134 133 134 132 128 123 117 110 96 91 87 74 76 73 64 64 61 64 62 63 61 58 58 59 61 62 71 67 71 70 69 64 69 64 65 62
136 164 163 123 300 19 141 237 88 214 255 266 232 186 171 218 288 254 216 253 218 190 201 208 209 205 170 151 150 152 152 153 154 156 159 159 155 154 160 165 171 175 171 176 179 176 176 177 167 168 169 168 164 161 157 154 152 150 140 138 138 143 142 153 152 146 144 132 121 114 109 97 81 75 71 73 62 60 66 60 56 55 53 52 58 65 70 73 73 72 68 69 68 63 62 64 61
187 143 141 166 245 137 255 129 221 220 209 244 209 143 20 250 239 238 208 219 231 221 209 197 200 193 155 153 152 157 153 153 157 156 154 152 156 161 172 176 180 180 178 179 182 183 185 181 176 174 180 168 165 162 162 157 153 148 139 132 133 138 139 155 145 140 140 131 127 124 118 109 104 85 72 80 71 73 76 66 54 51 52 58 74 73 69 71 76 75 73 69 66 62 60 63 65
189 186 173 173 167 187 212 227 48 314 277 254 243 155 241 241 279 238 229 216 214 213 214 208 200 170 159 153 152 152 152 153 155 151 152 158 166 174 179 185 185 183 182 182 181 181 180 182 201 189 154 146 144 156 157 153 150 138 133 132 139 144 146 141 145 131 123 124 123 120 118 120 111 111 103 95 103 87 73 70 65 61 63 72 75 75 73 71 73 76 73 72 68 68 68 66 69
200 147 138 180 171 164 198 188 198 207 203 243 231 118 232 141 234 226 212 213 211 207 56 76 101 124 127 132 134 141 147 153 150 151 161 169 175 178 184 186 185 184 181 182 177 170 166 171 176 159 132 134 143 148 151 141 134 127 123 126 130 129 127 122 121 122 127 123 116 116 113 115 113 113 104 101 86 84 75 61 63 67 64 67 70 73 71 69 71 73 73 76 71 65 70 71 65
192 175 88 121 216 132 147 197 145 181 199 284 180 189 190 180 247 300 294 4 84 91 95 94 107 124 135 142 148 154 157 154 154 160 168 174 178 181 182 183 187 185 179 178 174 172 172 172 169 162 146 141 142 142 141 132 125 120 122 124 123 123 116 111 109 106 104 109 116 116 117 111 105 101 91 92 70 70 70 71 63 61 61 65 70 79 77 75 73 79 71 67 69 58 74 74 71
187 140 204 206 155 165 63 43 178 104 100 235 163 319 289 304 315 340 51 103 110 106 119 123 129 137 142 147 150 155 156 151 157 168 174 174 176 181 181 182 186 184 175 177 173 169 169 165 163 154 143 142 141 139 130 122 120 115 116 118 123 120 122 124 121 115 113 111 111 113 114 111 101 99 96 77 83 79 80 77 71 62 58 57 55 49 61 73 80 83 82 75 73 65 74 74 70
130 198 213 165 92 109 160 218 349 66 159 248 79 199 247 98 249 343 68 105 129 128 129 138 141 144 148 149 150 154 158 159 161 168 172 173 171 175 179 187 186 175 169 163 163 167 164 159 155 146 143 140 136 130 125 123 117 111 111 109 106 112 115 112 115 118 117 114 108 107 109 106 104 94 87 90 86 83 77 75 76 65 58 57 57 53 63 71 77 76 75 70 68 68 72 72 71
174 189 199 160 205 229 310 98 254 132 189 260 304 142 255 184 233 144 180 158 162 148 141 141 152 156 146 142 145 149 154 154 161 170 171 173 173 177 182 180 169 166 157 148 153 159 150 148 145 137 131 121 120 122 121 112 112 112 113 114 111 99 102 114 114 112 113 112 112 112 108 104 88 85 92 93 91 86 85 77 79 74 64 66 61 62 66 67 65 63 50 53 46 52 66 73 69
90 143 185 183 102 146 125 199 175 123 237 96 276 68 209 214 217 208 189 183 167 153 158 172 169 164 154 154 156 158 165 167 167 169 171 177 177 175 172 166 161 156 149 146 149 147 145 139 128 117 109 108 97 75 65 106 109 113 109 103 101 107 112 111 114 113 108 108 111 110 105 91 94 94 93 93 92 93 92 90 79 79 76 70 71 59 61 59 56 58 60 58 52 58 65 77 74
188 177 180 152 229 209 117 61 142 201 177 179 175 266 284 268 210 187 218 183 174 169 178 175 170 163 161 160 158 161 168 169 167 165 171 175 170 162 156 147 141 128 123 126 141 142 135 129 122 121 121 118 122 129 128 127 123 113 111 110 110 110 108 105 101 101 104 104 104 99 89 98 95 89 96 91 90 90 87 87 81 74 73 66 55 43 37 57 69 69 63 62 59 61 63 59 66
183 155 181 170 175 160 163 239 2 99 106 232 129 233 273 267 198 215 203 212 188 189 172 171 163 158 160 160 160 162 168 165 160 165 169 168 160 148 137 124 116 120 137 136 138 131 126 124 123 125 125 131 129 128 131 121 109 108 109 108 104 103 103 102 102 101 103 105 98 88 99 92 89 84 88 94 92 90 88 86 85 75 69 64 58 53 51 64 72 71 64 61 63 66 68 65 63